Location: Juzet
(42.9779°N, 0.7597°E)
Time: 01:38:40
(UTC+00:00)

Cosmos 1743 - Pass Details

Date: 14 July 2020
Orbit: 511 x 526 km, 82.6° (Epoch: 04 August)

Event Time Altitude Azimuth Distance (km) Brightness Sun altitude
Exits shadow 03:02:40 19° 193° (SSW) 1,283 4.2 -13.3°
Maximum altitude 03:05:21 78° 277° (W) 531 2.6 -13.0°
Drops below altitude 10° 03:09:12 10° 6° (N) 1,753 6.2 -12.5°
Sets 03:11:21 0° 7° (N) 2,647 7.2 -12.2°
